Location: Unspecified
(0.0000°N, 0.0000°E)
Time: 02:14:33
(UTC+00:00)

Courier 1B Rocket - Pass Details

Date: 20 December 2018
Orbit: 920 x 1202 km, 28.3° (Epoch: 16 January)

Event Time Altitude Azimuth Distance (km) Brightness Sun altitude
Rises 16:19:19 0° 284° (WNW) 3,997 9.0 22.4°
Reaches altitude 10° 16:22:15 10° 277° (W) 3,068 8.7 21.8°
Maximum altitude 16:29:24 42° 209° (SSW) 1,648 7.2 20.2°
Drops below altitude 10° 16:36:42 10° 140° (SE) 3,130 7.6 18.5°
Sets 16:39:45 0° 133° (SE) 4,085 8.0 17.8°
